Weather in Timiryazevo

Russia / Ivanovo Oblast     57°02′48″N   42°14′02″E
temp.,
°C
wind,
m/s
gust,
m/s
humid.,
%
clouds,
%
prec.,
mm/h
press.,
hPa
HPBL,
m
25 february, thu
thu2500:00−17s5995100 0.4 1029390
03:00−17s51096100 1.1 1026432
06:00−17s61296100 1.9 1020466
09:00−15s61095100 4.4 1015489
12:00−11s4694100 1.6 1012399
15:00−8sse3494100 2.1 1011302
18:00−10ese229698 0.3 101121
21:00−10se229696 0.4 101241
26 february, fri
fri2600:00−9se2296100 0.4 101179
03:00−9ese3496100 0.8 1012116
06:00−9se3596100 0.3 1009147
09:00−8se4696100 1.2 1008182
12:00−5se5996100 1.6 1003233
15:00−1sse5899100 5.3 1000216
18:00+2wsw513100100 5.6 996490
21:00+1w6129598 5.7 996626
27 february, sat
sat2700:000w51098100 0.3 994486
03:000w61198100 1.4 994613
06:000wnw5998100 0.9 994513
09:00−3nw489597 1.3 996420
12:00−8nne5894100 0.9 999493
15:00−9nne6991100 1.4 1002624
18:00−12nne51192100 0.2 1005593
21:00−14n51092100 0.3 1009404
28 february, sun
sun2800:00−17n499584 0.0 1010214
03:00−18n489544 0.0 1013186
06:00−20n46962 0.0 1014124
09:00−18n47931 0.0 1016248
12:00−13nnw468939 0.0 1017401
15:00−11nnw468861 0.0 1017528
18:00−14nnw349597 0.0 101974
21:00−16n349659 0.0 102143
1 march, mon
mon100:00−17nnw23970 0.0 102322
03:00−17nw239815 0.0 102420
06:00−16wnw129893 0.0 102420
09:00−12wsw239694 0.1 102591
12:00−5wsw359496 0.1 1024337
15:00−3wsw589298 0.1 1022627
18:00−3wsw5109599 0.1 1020419
21:00−1wsw6139399 0.1 1018594